NI4CE-10 Weather Reports


time (UTC)temp
C
wind
direction
speed
KPH
gust
KPH
rain 1hr
cm
rain 24hr
cm
rain mn
cm
humidity
%
barometer
mb
20260906203255 35 268 4.8 22.5 0.00 0.00 0.00 100 1013.0
20260906203230 35 323 9.7 20.9 0.00 0.00 0.00 100 1012.9
20260906202730 35 268 4.8 22.5 0.00 0.00 0.00 100 1013.0
20260906202642 35 28 3.2 17.7 0.00 0.00 0.00 100 1013.0
20260906202230 35 28 3.2 17.7 0.00 0.00 0.00 100 1013.0
20260906202123 35 298 9.7 20.9 0.00 0.00 0.00 100 1013.1
20260906201730 35 298 9.7 20.9 0.00 0.00 0.00 100 1013.1
20260906201230 35 247 14.5 19.3 0.00 0.00 0.00 100 1013.2
20260906201125 35 278 14.5 24.1 0.00 0.00 0.00 100 1013.3
20260906200730 35 278 14.5 24.1 0.00 0.00 0.00 100 1013.3
20260906200657 36 265 11.3 19.3 0.00 0.00 0.00 100 1013.3
20260906200230 36 265 11.3 19.3 0.00 0.00 0.00 100 1013.3
20260906200103 36 219 11.3 17.7 0.00 0.00 0.00 100 1013.7
20260906195730 36 219 11.3 17.7 0.00 0.00 0.00 100 1013.7
20260906195606 36 327 6.4 17.7 0.00 0.00 0.00 100 1013.8
20260906195230 36 327 6.4 17.7 0.00 0.00 0.00 100 1013.8
20260906195155 36 271 12.9 17.7 0.00 0.00 0.00 100 1013.8
20260906194730 36 271 12.9 17.7 0.00 0.00 0.00 100 1013.8
20260906194610 36 261 11.3 17.7 0.00 0.00 0.00 100 1013.8
20260906194230 36 261 11.3 17.7 0.00 0.00 0.00 100 1013.8
20260906194127 36 312 4.8 17.7 0.00 0.00 0.00 100 1013.8
20260906193730 36 312 4.8 17.7 0.00 0.00 0.00 100 1013.8
20260906193230 36 251 3.2 16.1 0.00 0.00 0.00 100 1013.8
20260906193103 36 288 9.7 19.3 0.00 0.00 0.00 100 1013.8
20260906192730 36 288 9.7 19.3 0.00 0.00 0.00 100 1013.8
20260906192231 36 293 9.7 17.7 0.00 0.00 0.00 100 1013.9
20260906192142 36 277 11.3 22.5 0.00 0.00 0.00 100 1014.0
20260906191730 36 277 11.3 22.5 0.00 0.00 0.00 100 1014.0
20260906191231 36 285 12.9 17.7 0.00 0.00 0.00 100 1014.0
20260906191109 36 277 8.0 17.7 0.00 0.00 0.00 100 1014.2
20260906190731 36 277 8.0 17.7 0.00 0.00 0.00 100 1014.2
20260906190559 36 291 8.0 27.4 0.00 0.00 0.00 100 1014.1
20260906190231 36 291 8.0 27.4 0.00 0.00 0.00 100 1014.1
20260906190146 37 255 22.5 22.5 0.00 0.00 0.00 100 1014.2
20260906185731 37 255 22.5 22.5 0.00 0.00 0.00 100 1014.2
20260906185231 37 322 16.1 20.9 0.00 0.00 0.00 100 1014.3
20260906185154 37 312 12.9 24.1 0.00 0.00 0.00 100 1014.3
20260906184731 37 312 12.9 24.1 0.00 0.00 0.00 100 1014.3
20260906184554 37 298 6.4 17.7 0.00 0.00 0.00 100 1014.2
20260906184231 37 298 6.4 17.7 0.00 0.00 0.00 100 1014.2
20260906183731 38 226 4.8 16.1 0.00 0.00 0.00 100 1014.1
20260906183231 38 241 8.0 12.9 0.00 0.00 0.00 100 1014.2
20260906182731 39 258 6.4 14.5 0.00 0.00 0.00 100 1014.4
20260906182231 40 277 6.4 14.5 0.00 0.00 0.00 100 1014.5
20260906182009 41 305 11.3 19.3 0.00 0.00 0.00 100 1014.5
20260906181731 41 305 11.3 19.3 0.00 0.00 0.00 100 1014.5
20260906181654 43 258 9.7 24.1 0.00 0.00 0.00 100 1014.5
20260906181231 43 258 9.7 24.1 0.00 0.00 0.00 100 1014.5
20260906181116 44 285 11.3 24.1 0.00 0.00 0.00 100 1014.5
20260906180731 44 285 11.3 24.1 0.00 0.00 0.00 100 1014.5
20260906180644 45 282 16.1 22.5 0.00 0.00 0.00 100 1014.5
20260906180231 45 282 16.1 22.5 0.00 0.00 0.00 100 1014.5
20260906180116 44 286 8.0 22.5 0.00 0.00 0.00 100 1014.5
20260906175731 44 286 8.0 22.5 0.00 0.00 0.00 100 1014.5
20260906175604 42 324 8.0 14.5 0.00 0.00 0.00 100 1014.5
20260906175231 42 324 8.0 14.5 0.00 0.00 0.00 100 1014.5
20260906175015 41 275 8.0 19.3 0.00 0.00 0.00 100 1014.6
20260906174731 41 275 8.0 19.3 0.00 0.00 0.00 100 1014.6
20260906174611 48 253 14.5 20.9 0.00 0.00 0.00 100 1014.6
20260906174231 48 253 14.5 20.9 0.00 0.00 0.00 100 1014.6
20260906173940 48 338 9.7 14.5 0.00 0.00 0.00 100 1014.6
20260906173731 48 338 9.7 14.5 0.00 0.00 0.00 100 1014.6
20260906173647 53 191 1.6 14.5 0.00 0.00 0.00 100 1014.4
20260906173231 53 191 1.6 14.5 0.00 0.00 0.00 100 1014.4
20260906173138 50 274 8.0 19.3 0.00 0.00 0.00 100 1014.6
20260906172731 50 274 8.0 19.3 0.00 0.00 0.00 100 1014.6
20260906172613 52 306 8.0 16.1 0.00 0.00 0.00 100 1014.6
20260906172231 52 306 8.0 16.1 0.00 0.00 0.00 100 1014.6
20260906172111 46 326 4.8 14.5 0.00 0.00 0.00 100 1014.8
20260906171731 46 326 4.8 14.5 0.00 0.00 0.00 100 1014.8
20260906171647 53 250 0.0 16.1 0.00 0.00 0.00 100 1014.9
20260906171231 53 250 0.0 16.1 0.00 0.00 0.00 100 1014.9
20260906171114 51 337 6.4 17.7 0.00 0.00 0.00 100 1014.9
20260906170731 51 337 6.4 17.7 0.00 0.00 0.00 100 1014.9
20260906170231 48 341 9.7 20.9 0.00 0.00 0.00 100 1015.0
20260906170107 52 296 4.8 17.7 0.00 0.00 0.00 100 1014.9
20260906165731 52 296 4.8 17.7 0.00 0.00 0.00 100 1014.9
20260906165639 52 284 11.3 17.7 0.00 0.00 0.00 100 1014.9
20260906165231 52 284 11.3 17.7 0.00 0.00 0.00 100 1014.9
20260906165015 52 323 8.0 16.1 0.00 0.00 0.00 100 1014.9
20260906164731 52 323 8.0 16.1 0.00 0.00 0.00 100 1014.9
20260906164649 52 334 11.3 16.1 0.00 0.00 0.00 100 1015.0
20260906164231 52 334 11.3 16.1 0.00 0.00 0.00 100 1015.0
20260906163946 52 300 9.7 14.5 0.00 0.00 0.00 100 1015.1
20260906163731 52 300 9.7 14.5 0.00 0.00 0.00 100 1015.1
20260906163608 51 298 6.4 17.7 0.00 0.00 0.00 100 1015.0
20260906163231 51 298 6.4 17.7 0.00 0.00 0.00 100 1015.0
20260906162731 50 292 9.7 14.5 0.00 0.00 0.00 100 1015.1
20260906162231 48 272 9.7 9.7 0.00 0.00 0.00 100 1015.3
20260906161731 42 282 4.8 14.5 0.00 0.00 0.00 100 1015.4
20260906161606 45 28 4.8 9.7 0.00 0.00 0.00 100 1015.4
20260906161526 45 28 4.8 9.7 0.00 0.00 0.00 100 1015.4
20260906161231 45 28 4.8 9.7 0.00 0.00 0.00 100 1015.4
20260906161126 45 267 3.2 9.7 0.00 0.00 0.00 100 1015.5
20260906160732 45 267 3.2 9.7 0.00 0.00 0.00 100 1015.5
20260906160549 38 296 4.8 6.4 0.00 0.00 0.00 100 1015.6
20260906160231 38 296 4.8 6.4 0.00 0.00 0.00 100 1015.6
20260906160114 41 215 1.6 9.7 0.00 0.00 0.00 100 1015.6
20260906155731 41 215 1.6 9.7 0.00 0.00 0.00 100 1015.6
20260906155516 46 271 4.8 11.3 0.00 0.00 0.00 100 1015.7
20260906155231 46 271 4.8 11.3 0.00 0.00 0.00 100 1015.7
20260906154731 38 320 6.4 11.3 0.00 0.00 0.00 100 1015.7
20260906154653 41 292 1.6 9.7 0.00 0.00 0.00 100 1015.8
20260906154231 41 292 1.6 9.7 0.00 0.00 0.00 100 1015.8
20260906153731 46 313 3.2 9.7 0.00 0.00 0.00 100 1015.8
20260906153507 44 61 1.6 9.7 0.00 0.00 0.00 100 1015.7
20260906153231 44 61 1.6 9.7 0.00 0.00 0.00 100 1015.7
20260906152731 40 8 4.8 11.3 0.00 0.00 0.00 100 1015.6
20260906152606 43 14 1.6 4.8 0.00 0.00 0.00 100 1015.6
20260906152533 43 14 1.6 4.8 0.00 0.00 0.00 100 1015.6
20260906152231 43 14 1.6 4.8 0.00 0.00 0.00 100 1015.6
20260906152034 42 223 0.0 6.4 0.00 0.00 0.00 100 1015.6
20260906151732 42 223 0.0 6.4 0.00 0.00 0.00 100 1015.6
20260906151232 41 334 0.0 6.4 0.00 0.00 0.00 100 1015.7
20260906150732 40 4 4.8 11.3 0.00 0.00 0.00 100 1015.6
20260906150232 40 220 0.0 8.0 0.00 0.00 0.00 100 1015.7
20260906150001 38 322 1.6 9.7 0.00 0.00 0.00 100 1015.7
20260906145732 38 322 1.6 9.7 0.00 0.00 0.00 100 1015.7
20260906145232 38 351 6.4 6.4 0.00 0.00 0.00 100 1015.7
20260906145127 38 330 1.6 11.3 0.00 0.00 0.00 100 1015.7
20260906144732 38 330 1.6 11.3 0.00 0.00 0.00 100 1015.7
20260906144712 37 324 1.6 9.7 0.00 0.00 0.00 100 1015.8
20260906144232 37 324 1.6 9.7 0.00 0.00 0.00 100 1015.8
20260906144110 37 319 1.6 4.8 0.00 0.00 0.00 100 1015.9
20260906143732 37 319 1.6 4.8 0.00 0.00 0.00 100 1015.9
20260906143232 35 343 0.0 4.8 0.00 0.00 0.00 100 1016.0
20260906143103 35 11 1.6 9.7 0.00 0.00 0.00 100 1015.9
20260906142732 35 11 1.6 9.7 0.00 0.00 0.00 100 1015.9
20260906142232 36 358 6.4 9.7 0.00 0.00 0.00 100 1016.0
20260906142124 38 351 4.8 6.4 0.00 0.00 0.00 100 1015.9
20260906141732 38 351 4.8 6.4 0.00 0.00 0.00 100 1015.9
20260906141656 39 317 4.8 8.0 0.00 0.00 0.00 100 1016.0
20260906141336 39 291 1.6 4.8 0.00 0.00 0.00 100 1016.0
20260906141232 39 317 4.8 8.0 0.00 0.00 0.00 100 1016.0
20260906140732 39 291 1.6 4.8 0.00 0.00 0.00 100 1016.0
20260906140553 40 345 0.0 1.6 0.00 0.00 0.00 100 1016.0
20260906140232 39 345 0.0 0.0 0.00 0.00 0.00 100 1015.9
20260906135732 40 345 0.0 1.6 0.00 0.00 0.00 100 1016.0
20260906135232 40 21 0.0 6.4 0.00 0.00 0.00 100 1015.8
20260906134732 39 18 3.2 4.8 0.00 0.00 0.00 100 1016.0
20260906134601 39 101 1.6 3.2 0.00 0.00 0.00 100 1016.0
20260906134232 39 101 1.6 3.2 0.00 0.00 0.00 100 1016.0
20260906134110 39 151 0.0 1.6 0.00 0.00 0.00 100 1016.1
20260906133732 39 151 0.0 1.6 0.00 0.00 0.00 100 1016.1
20260906133232 39 129 0.0 0.0 0.00 0.00 0.00 100 1016.0
20260906133109 38 129 0.0 0.0 0.00 0.00 0.00 100 1016.0
20260906132732 38 129 0.0 0.0 0.00 0.00 0.00 100 1016.0
20260906132232 38 129 0.0 0.0 0.00 0.00 0.00 100 1015.9
20260906132101 38 129 0.0 3.2 0.00 0.00 0.00 100 1015.9
20260906131732 38 129 0.0 3.2 0.00 0.00 0.00 100 1015.9
20260906131526 37 99 3.2 4.8 0.00 0.00 0.00 100 1015.9
20260906131232 37 99 3.2 4.8 0.00 0.00 0.00 100 1015.9
20260906131030 37 119 1.6 3.2 0.00 0.00 0.00 100 1015.8
20260906130732 37 119 1.6 3.2 0.00 0.00 0.00 100 1015.8
20260906130232 36 163 1.6 3.2 0.00 0.00 0.00 100 1015.7
20260906130040 36 178 1.6 3.2 0.00 0.00 0.00 100 1015.6
20260906125732 36 178 1.6 3.2 0.00 0.00 0.00 100 1015.6
20260906125533 34 144 0.0 4.8 0.00 0.00 0.00 100 1015.6
20260906125232 34 144 0.0 4.8 0.00 0.00 0.00 100 1015.6
20260906125031 33 146 1.6 4.8 0.00 0.00 0.00 100 1015.5
20260906124732 33 146 1.6 4.8 0.00 0.00 0.00 100 1015.5
20260906124542 31 151 1.6 4.8 0.00 0.00 0.00 100 1015.5
20260906124232 31 151 1.6 4.8 0.00 0.00 0.00 100 1015.5
20260906124037 28 160 3.2 4.8 0.00 0.00 0.00 100 1015.4
20260906123732 28 160 3.2 4.8 0.00 0.00 0.00 100 1015.4
20260906123538 28 210 1.6 3.2 0.00 0.00 0.00 100 1015.5
20260906123232 28 210 1.6 3.2 0.00 0.00 0.00 100 1015.5
20260906123046 27 188 0.0 4.8 0.00 0.00 0.00 100 1015.4
20260906122732 27 188 0.0 4.8 0.00 0.00 0.00 100 1015.4
20260906122232 27 150 0.0 0.0 0.00 0.00 0.00 100 1015.5
20260906122035 27 150 0.0 4.8 0.00 0.00 0.00 100 1015.5
20260906121732 27 150 0.0 4.8 0.00 0.00 0.00 100 1015.5
20260906121232 26 185 0.0 0.0 0.00 0.00 0.00 100 1015.4
20260906121112 26 185 0.0 0.0 0.00 0.00 0.00 100 1015.4
20260906120732 26 185 0.0 0.0 0.00 0.00 0.00 100 1015.4
20260906120232 26 185 0.0 0.0 0.00 0.00 0.00 100 1015.3
20260906115942 25 185 0.0 0.0 0.00 0.00 0.00 100 1015.2
20260906115732 25 185 0.0 0.0 0.00 0.00 0.00 100 1015.2
20260906115531 25 185 0.0 0.0 0.00 0.00 0.00 100 1015.1
20260906115232 25 185 0.0 0.0 0.00 0.00 0.00 100 1015.1
20260906115029 25 185 0.0 0.0 0.00 0.00 0.00 100 1014.9
20260906114732 25 185 0.0 0.0 0.00 0.00 0.00 100 1014.9
20260906114232 25 185 0.0 0.0 0.00 0.00 0.00 100 1014.9
20260906114056 25 185 0.0 0.0 0.00 0.00 0.00 100 1014.8
20260906113732 25 185 0.0 0.0 0.00 0.00 0.00 100 1014.8
20260906113232 25 185 0.0 0.0 0.00 0.00 0.00 100 1014.7
20260906112732 25 185 0.0 0.0 0.00 0.00 0.00 100 1014.7
20260906112232 24 185 0.0 0.0 0.00 0.00 0.00 100 1014.7
20260906112029 24 185 0.0 0.0 0.00 0.00 0.00 100 1014.7
20260906111733 24 185 0.0 0.0 0.00 0.00 0.00 100 1014.7
20260906111233 24 185 0.0 0.0 0.00 0.00 0.00 100 1014.5
20260906111056 24 185 0.0 0.0 0.00 0.00 0.00 100 1014.5
20260906110733 24 185 0.0 0.0 0.00 0.00 0.00 100 1014.5
20260906110439 24 185 0.0 0.0 0.00 0.00 0.00 100 1014.5
20260906110233 24 185 0.0 0.0 0.00 0.00 0.00 100 1014.5
20260906105733 24 185 0.0 0.0 0.00 0.00 0.00 100 1014.5
20260906105233 24 185 0.0 0.0 0.00 0.00 0.00 100 1014.4
20260906104733 24 185 0.0 0.0 0.00 0.00 0.00 100 1014.2
20260906104233 24 185 0.0 0.0 0.00 0.00 0.00 100 1014.0
20260906103733 24 185 0.0 0.0 0.00 0.00 0.00 100 1013.9
20260906103233 24 185 0.0 0.0 0.00 0.00 0.00 100 1013.9
20260906103031 25 185 0.0 0.0 0.00 0.00 0.00 100 1013.9
20260906102733 25 185 0.0 0.0 0.00 0.00 0.00 100 1013.9
20260906102233 25 185 0.0 0.0 0.00 0.00 0.00 100 1013.8
20260906101733 24 185 0.0 0.0 0.00 0.00 0.00 100 1013.7
20260906101233 25 185 0.0 0.0 0.00 0.00 0.00 100 1013.7
20260906100733 24 185 0.0 0.0 0.00 0.00 0.00 100 1013.5
20260906100511 25 185 0.0 0.0 0.00 0.00 0.00 100 1013.4
20260906100233 25 185 0.0 0.0 0.00 0.00 0.00 100 1013.4
20260906095733 25 185 0.0 0.0 0.00 0.00 0.00 100 1013.4
20260906095241 25 185 0.0 0.0 0.00 0.00 0.00 100 1013.1
20260906095233 25 185 0.0 0.0 0.00 0.00 0.00 100 1013.2
20260906095026 52 268 9.7 16.1 0.00 0.00 0.00 100 1016.2
20260906095022 46 279 0.0 14.5 0.00 0.00 0.00 100 1016.2
20260906094733 25 185 0.0 0.0 0.00 0.00 0.00 100 1013.2
20260906094233 25 185 0.0 0.0 0.00 0.00 0.00 100 1013.1
20260906093733 25 185 0.0 0.0 0.00 0.00 0.00 100 1013.1
20260906093233 25 185 0.0 0.0 0.00 0.00 0.00 100 1013.1
20260906092733 25 185 0.0 0.0 0.00 0.00 0.00 100 1013.2
20260906092233 25 185 0.0 0.0 0.00 0.00 0.00 100 1013.1
20260906091733 25 185 0.0 0.0 0.00 0.00 0.00 100 1013.1
20260906091233 25 185 0.0 0.0 0.00 0.00 0.00 100 1013.0
20260906090733 25 185 0.0 0.0 0.00 0.00 0.00 100 1013.0
20260906090233 25 185 0.0 0.0 0.00 0.00 0.00 100 1013.0
20260906085733 25 185 0.0 0.0 0.00 0.00 0.00 100 1013.0
20260906085233 25 185 0.0 0.0 0.00 0.00 0.00 100 1013.1
20260906084733 25 185 0.0 0.0 0.00 0.00 0.00 100 1013.0
20260906084233 25 185 0.0 0.0 0.00 0.00 0.00 100 1013.0
20260906083733 25 185 0.0 0.0 0.00 0.00 0.00 100 1013.0
20260906083233 25 185 0.0 0.0 0.00 0.00 0.00 100 1013.0
20260906082733 25 185 0.0 0.0 0.00 0.00 0.00 100 1013.2
20260906082233 25 185 0.0 0.0 0.00 0.00 0.00 100 1013.4
20260906081733 25 185 0.0 0.0 0.00 0.00 0.00 100 1013.4
20260906081233 25 185 0.0 0.0 0.00 0.00 0.00 100 1013.4
20260906080937 25 185 0.0 0.0 0.00 0.00 0.00 100 1013.5
20260906080733 25 185 0.0 0.0 0.00 0.00 0.00 100 1013.5
20260906080233 25 185 0.0 0.0 0.00 0.00 0.00 100 1013.4
20260906075953 25 185 0.0 0.0 0.00 0.00 0.00 100 1013.3
20260906075733 25 185 0.0 0.0 0.00 0.00 0.00 100 1013.3
20260906075233 25 185 0.0 3.2 0.00 0.00 0.00 100 1013.4
20260906074733 25 220 1.6 1.6 0.00 0.00 0.00 100 1013.5
20260906074233 25 135 0.0 1.6 0.00 0.00 0.00 100 1013.6
20260906073733 25 113 0.0 0.0 0.00 0.00 0.00 100 1013.6
20260906073512 25 113 0.0 0.0 0.00 0.00 0.00 100 1013.6
20260906073233 25 113 0.0 0.0 0.00 0.00 0.00 100 1013.6
20260906072733 25 113 0.0 0.0 0.00 0.00 0.00 100 1013.8
20260906072234 25 113 0.0 0.0 0.00 0.00 0.00 100 1013.8
20260906071734 25 113 0.0 0.0 0.00 0.00 0.00 100 1013.9
20260906071234 25 113 0.0 0.0 0.00 0.00 0.00 100 1013.9
20260906070734 25 113 0.0 0.0 0.00 0.00 0.00 100 1013.9
20260906070234 25 113 0.0 0.0 0.00 0.00 0.00 100 1013.9
20260906065734 25 113 0.0 0.0 0.00 0.00 0.00 100 1013.9
20260906065234 25 113 0.0 0.0 0.00 0.00 0.00 100 1014.0
20260906064734 26 113 0.0 0.0 0.00 0.00 0.00 100 1014.0
20260906064234 26 113 0.0 0.0 0.00 0.00 0.00 100 1013.9
20260906063734 26 113 0.0 0.0 0.00 0.00 0.00 100 1014.1
20260906063234 25 113 0.0 0.0 0.00 0.00 0.00 100 1014.2
20260906062734 26 113 0.0 0.0 0.00 0.00 0.00 100 1014.4
20260906062234 26 113 0.0 3.2 0.00 0.00 0.00 100 1014.6
20260906061941 26 129 1.6 3.2 0.00 0.00 0.00 100 1014.6
20260906061734 26 129 1.6 3.2 0.00 0.00 0.00 100 1014.6
20260906061234 26 156 1.6 3.2 0.00 0.00 0.00 100 1014.7
20260906060734 26 171 0.0 0.0 0.00 0.00 0.00 100 1014.7
20260906060234 26 171 0.0 0.0 0.00 0.00 0.00 100 1014.7
20260906055734 26 171 0.0 0.0 0.00 0.00 0.00 100 1014.8
20260906055234 26 171 0.0 0.0 0.00 0.00 0.00 100 1014.9
20260906054944 26 171 0.0 0.0 0.00 0.00 0.00 100 1015.0
20260906054734 26 171 0.0 0.0 0.00 0.00 0.00 100 1015.0
20260906054234 26 171 0.0 0.0 0.00 0.00 0.00 100 1015.1
20260906053734 26 171 0.0 0.0 0.00 0.00 0.00 100 1015.2
20260906053234 26 171 0.0 0.0 0.00 0.00 0.00 100 1015.2
20260906052734 26 171 0.0 0.0 0.00 0.00 0.00 100 1015.1
20260906052500 26 171 0.0 0.0 0.00 0.00 0.00 100 1015.1
20260906052234 26 171 0.0 0.0 0.00 0.00 0.00 100 1015.1
20260906051734 26 171 0.0 0.0 0.00 0.00 0.00 100 1015.0
20260906051234 26 171 0.0 0.0 0.00 0.00 0.00 100 1014.9
20260906050734 26 171 0.0 0.0 0.00 0.00 0.00 100 1015.0
20260906050500 26 171 0.0 0.0 0.00 0.00 0.00 100 1015.0
20260906050234 26 171 0.0 0.0 0.00 0.00 0.00 100 1015.0
20260906045734 26 171 0.0 0.0 0.00 0.00 0.00 100 1015.0
20260906045234 26 171 0.0 0.0 0.00 0.00 0.00 100 1014.9
20260906044734 26 171 0.0 0.0 0.00 0.00 0.00 100 1015.0
20260906044234 26 171 0.0 0.0 0.00 0.00 0.00 100 1015.0
20260906043734 26 171 0.0 3.2 0.00 0.00 0.00 100 1014.9
20260906043234 26 209 1.6 3.2 0.00 0.00 0.00 100 1014.9
20260906042734 26 187 1.6 3.2 0.00 0.00 0.00 100 1015.0
20260906042234 26 223 0.0 0.0 0.00 0.00 0.00 100 1015.0
20260906041734 27 223 0.0 0.0 0.00 0.00 0.00 100 1015.2
20260906041234 27 223 0.0 0.0 0.00 0.00 0.00 100 1015.2
20260906040734 27 223 0.0 0.0 0.00 0.00 0.00 100 1015.3
20260906040234 27 223 0.0 0.0 0.00 0.00 0.00 100 1015.5
20260906040015 27 223 0.0 3.2 0.00 0.00 0.00 100 1015.4
20260906035734 27 223 0.0 3.2 0.00 0.00 0.00 100 1015.4
20260906035234 27 175 0.0 4.8 0.00 0.00 0.00 100 1015.5
20260906034940 27 158 0.0 3.2 0.00 0.00 0.00 100 1015.6
20260906034734 27 158 0.0 3.2 0.00 0.00 0.00 100 1015.6
20260906034234 27 205 1.6 4.8 0.00 0.00 0.00 100 1015.7
20260906033939 27 78 0.0 4.8 0.00 0.00 0.00 100 1015.7
20260906033734 27 78 0.0 4.8 0.00 0.00 0.00 100 1015.7
20260906033425 27 150 3.2 8.0 0.00 0.00 0.00 100 1015.7
20260906033234 27 150 3.2 8.0 0.00 0.00 0.00 100 1015.7
20260906032734 27 178 0.0 3.2 0.00 0.00 0.00 100 1015.7
20260906032438 27 151 0.0 3.2 0.00 0.00 0.00 100 1015.6
20260906032235 27 151 0.0 3.2 0.00 0.00 0.00 100 1015.6
20260906031735 27 151 3.2 4.8 0.00 0.00 0.00 100 1015.6
20260906031235 27 168 3.2 6.4 0.00 0.00 0.00 100 1015.6
20260906030850 27 146 3.2 6.4 0.00 0.00 0.00 100 1015.6
20260906030735 27 146 3.2 6.4 0.00 0.00 0.00 100 1015.6
20260906030235 27 146 3.2 8.0 0.00 0.00 0.00 100 1015.6
20260906025735 27 94 4.8 9.7 0.00 0.00 0.00 100 1015.6
20260906025405 27 344 0.0 0.0 0.00 0.00 0.00 100 1015.6
20260906025235 27 344 0.0 0.0 0.00 0.00 0.00 100 1015.6
20260906024938 27 344 0.0 0.0 0.00 0.00 0.00 100 1015.6
20260906024735 27 344 0.0 0.0 0.00 0.00 0.00 100 1015.6
20260906024235 27 344 0.0 0.0 0.00 0.00 0.00 100 1015.6
20260906023735 27 344 0.0 0.0 0.00 0.00 0.00 100 1015.7
20260906023443 27 344 0.0 0.0 0.00 0.00 0.00 100 1015.7
20260906023235 27 344 0.0 0.0 0.00 0.00 0.00 100 1015.7
20260906022943 27 344 0.0 0.0 0.00 0.00 0.00 100 1015.7
20260906022735 27 344 0.0 0.0 0.00 0.00 0.00 100 1015.7
20260906022501 27 344 0.0 0.0 0.00 0.00 0.00 100 1015.7
20260906022235 27 344 0.0 0.0 0.00 0.00 0.00 100 1015.7
20260906021735 27 344 0.0 0.0 0.00 0.00 0.00 100 1015.8
20260906021523 27 344 0.0 0.0 0.00 0.00 0.00 100 1015.9
20260906021235 27 344 0.0 0.0 0.00 0.00 0.00 100 1015.8
20260906021011 27 344 0.0 0.0 0.00 0.00 0.00 100 1015.9
20260906020735 27 344 0.0 0.0 0.00 0.00 0.00 100 1015.9
20260906020505 27 344 0.0 0.0 0.00 0.00 0.00 100 1015.9
20260906020235 27 344 0.0 0.0 0.00 0.00 0.00 100 1015.9
20260906015946 27 344 0.0 0.0 0.00 0.00 0.00 100 1015.8
20260906015735 27 344 0.0 0.0 0.00 0.00 0.00 100 1015.8
20260906015235 27 344 0.0 0.0 0.00 0.00 0.00 100 1015.7
20260906015015 27 344 0.0 0.0 0.00 0.00 0.00 100 1015.7
20260906014735 27 344 0.0 0.0 0.00 0.00 0.00 100 1015.7
20260906014235 27 344 0.0 0.0 0.00 0.00 0.00 100 1015.6
20260906014018 27 344 0.0 0.0 0.00 0.00 0.00 100 1015.5
20260906013735 27 344 0.0 0.0 0.00 0.00 0.00 100 1015.5
20260906013555 27 344 0.0 0.0 0.00 0.00 0.00 100 1015.5
20260906013235 27 344 0.0 0.0 0.00 0.00 0.00 100 1015.5
20260906012735 28 344 0.0 0.0 0.00 0.00 0.00 100 1015.5
20260906012235 28 344 0.0 0.0 0.00 0.00 0.00 100 1015.4
20260906011959 28 344 0.0 0.0 0.00 0.00 0.00 100 1015.2
20260906011735 28 344 0.0 0.0 0.00 0.00 0.00 100 1015.2
20260906011501 28 344 0.0 0.0 0.00 0.00 0.00 100 1015.1
20260906011235 28 344 0.0 0.0 0.00 0.00 0.00 100 1015.1
20260906010735 28 344 0.0 0.0 0.00 0.00 0.00 100 1015.2
20260906010235 28 344 0.0 0.0 0.00 0.00 0.00 100 1015.1
20260906005735 28 344 0.0 0.0 0.00 0.00 0.00 100 1015.0
20260906005235 28 344 0.0 0.0 0.00 0.00 0.00 100 1014.9
20260906004735 28 344 0.0 0.0 0.00 0.00 0.00 100 1014.9
20260906004235 28 344 0.0 0.0 0.00 0.00 0.00 100 1015.0
20260906003735 28 344 0.0 0.0 0.00 0.00 0.00 100 1014.9
20260906003235 28 344 0.0 0.0 0.00 0.00 0.00 100 1015.0
20260906002735 28 344 0.0 0.0 0.00 0.00 0.00 100 1015.2
20260906002235 29 344 0.0 0.0 0.00 0.00 0.00 100 1015.0
20260906001958 29 344 0.0 0.0 0.00 0.00 0.00 100 1015.1
20260906001735 29 344 0.0 0.0 0.00 0.00 0.00 100 1015.1
20260906001235 29 344 0.0 0.0 0.00 0.00 0.00 100 1015.1
20260906000735 29 344 0.0 0.0 0.00 0.00 0.00 100 1015.1
20260906000235 30 344 0.0 0.0 0.00 0.00 0.00 100 1015.0
20260905235735 30 344 0.0 3.2 0.00 0.00 0.00 100 1015.0
20260905235235 30 268 0.0 4.8 0.00 0.00 0.00 100 1015.0
20260905234735 30 313 1.6 4.8 0.00 0.00 0.00 100 1015.0
20260905234235 30 354 0.0 6.4 0.00 0.00 0.00 100 1014.8
20260905233928 30 310 0.0 4.8 0.00 0.00 0.00 100 1014.7
20260905233735 30 310 0.0 4.8 0.00 0.00 0.00 100 1014.7
20260905233235 30 289 1.6 9.7 0.00 0.00 0.00 100 1014.7
20260905232736 31 352 8.0 9.7 0.00 0.00 0.00 100 1014.6
20260905232236 31 345 4.8 12.9 0.00 0.00 0.00 100 1014.6
20260905231736 31 358 6.4 12.9 0.00 0.00 0.00 100 1014.6
20260905231236 31 336 11.3 11.3 0.00 0.00 0.00 100 1014.7
20260905230736 31 323 4.8 9.7 0.00 0.00 0.00 100 1014.8
20260905230236 31 354 1.6 16.1 0.00 0.00 0.00 100 1014.9
20260905225736 31 281 3.2 14.5 0.00 0.00 0.00 100 1014.9
20260905225236 31 338 6.4 16.1 0.00 0.00 0.00 100 1014.8
20260905224736 32 357 9.7 16.1 0.00 0.00 0.00 100 1014.9
20260905224520 32 348 6.4 17.7 0.00 0.00 0.00 100 1014.8
20260905224236 32 348 6.4 17.7 0.00 0.00 0.00 100 1014.8
20260905223736 32 330 8.0 16.1 0.00 0.00 0.00 100 1014.6
20260905223451 32 327 9.7 11.3 0.00 0.00 0.00 100 1014.7
20260905223236 32 327 9.7 11.3 0.00 0.00 0.00 100 1014.7
20260905222736 32 326 11.3 16.1 0.00 0.00 0.00 100 1014.7
20260905222455 32 19 8.0 17.7 0.00 0.00 0.00 100 1014.6
20260905222236 32 19 8.0 17.7 0.00 0.00 0.00 100 1014.6
20260905221736 32 341 12.9 17.7 0.00 0.00 0.00 100 1014.6
20260905221236 32 358 12.9 20.9 0.00 0.00 0.00 100 1014.5
20260905220736 32 338 14.5 22.5 0.00 0.00 0.00 100 1014.6
20260905220546 32 334 4.8 16.1 0.00 0.00 0.00 100 1014.6
20260905220236 32 334 4.8 16.1 0.00 0.00 0.00 100 1014.6
20260905215736 33 15 3.2 22.5 0.00 0.00 0.00 100 1014.5
20260905215236 33 334 9.7 16.1 0.00 0.00 0.00 100 1014.4
20260905215008 33 312 11.3 14.5 0.00 0.00 0.00 100 1014.4
20260905214736 33 312 11.3 14.5 0.00 0.00 0.00 100 1014.4
20260905214236 33 337 8.0 14.5 0.00 0.00 0.00 100 1014.4
20260905213736 33 14 3.2 19.3 0.00 0.00 0.00 100 1014.4
20260905213236 33 317 9.7 17.7 0.00 0.00 0.00 100 1014.2
20260905212736 34 330 12.9 24.1 0.00 0.00 0.00 100 1014.2
20260905212236 34 315 8.0 25.7 0.00 0.00 0.00 100 1014.2
20260905212029 34 303 14.5 14.5 0.00 0.00 0.00 100 1014.3
20260905211736 34 303 14.5 14.5 0.00 0.00 0.00 100 1014.3
20260905211236 34 331 11.3 17.7 0.00 0.00 0.00 100 1014.3
20260905210736 34 295 6.4 14.5 0.00 0.00 0.00 100 1014.4
20260905210236 34 319 6.4 24.1 0.00 0.00 0.00 100 1014.4
20260905210040 34 286 14.5 20.9 0.00 0.00 0.00 100 1014.4
20260905205737 34 286 14.5 20.9 0.00 0.00 0.00 100 1014.4
20260905205236 34 299 8.0 19.3 0.00 0.00 0.00 100 1014.4
20260905204736 34 279 4.8 16.1 0.00 0.00 0.00 100 1014.3
20260905204236 34 333 11.3 17.7 0.00 0.00 0.00 100 1014.3
20260905203736 34 293 8.0 19.3 0.00 0.00 0.00 100 1014.3